Theta_e
304 303 303 302 303 303 303 302 302 302 302 302 302 302 302 302 302 303 304 304 304 304 304 304 304 304 303 304 303 303 304 304 303 302 302 301 301 301 300 300 301 301 301 301 302 302 302 302 301 301 301 301 301 303 303 303 305 309 311 311 312 313 313 313 312 311 310 312 311 309 309 310 312 314 316 317 323 328 329 329 329 329 329 330 330 331 332 332
304 303 303 302 303 303 303 303 302 302 302 302 302 302 302 302 302 303 304 304 304 304 304 305 304 304 303 304 303 303 304 304 302 302 302 301 301 301 301 300 301 301 301 302 302 302 302 301 301 300 301 302 301 302 303 303 304 308 310 308 310 312 310 309 308 307 308 309 308 308 308 308 310 312 313 314 320 325 327 329 328 328 329 329 330 331 332 332
304 304 303 302 302 303 304 303 302 302 302 302 302 302 302 302 302 303 304 304 304 304 305 305 304 303 303 304 303 303 304 304 303 302 301 301 302 301 301 301 301 301 301 302 302 301 302 301 301 300 301 303 301 302 304 303 304 306 307 306 308 310 307 307 307 307 306 307 307 308 307 307 309 310 310 312 317 321 325 329 329 329 329 329 329 331 332 332
304 304 303 302 302 303 304 303 302 302 302 302 302 302 302 302 302 303 304 304 304 304 304 304 303 303 304 303 303 303 304 305 304 302 301 301 302 302 302 302 301 301 301 301 301 301 302 301 301 301 301 304 302 302 304 304 304 304 305 306 307 307 306 307 306 306 306 306 306 307 306 307 308 308 309 312 314 318 325 328 329 329 329 329 330 331 332 332
303 303 303 302 302 303 304 304 302 302 302 302 302 302 302 302 303 303 304 303 303 303 303 304 303 303 304 303 303 303 304 305 304 302 302 302 302 302 303 302 301 301 301 301 301 301 301 301 301 301 302 304 304 303 304 303 303 304 304 306 306 305 305 306 305 305 305 305 306 307 307 307 306 307 309 311 311 314 320 323 324 324 324 327 329 331 332 332
303 303 302 302 302 303 304 304 302 302 302 302 302 302 302 302 302 303 304 303 302 302 302 303 303 303 304 303 303 304 305 306 304 303 303 303 303 303 303 304 303 301 301 301 301 301 301 301 302 302 303 304 304 304 304 303 303 303 304 304 304 305 305 305 305 305 304 305 306 306 306 305 305 306 308 309 309 312 315 316 316 316 317 322 328 331 332 332
303 302 302 302 302 303 304 304 303 302 302 302 302 302 302 302 302 303 303 303 302 302 301 302 303 303 303 303 303 304 305 305 304 304 304 304 304 304 304 305 304 303 301 301 301 301 301 301 302 302 303 303 303 304 304 304 303 303 304 303 304 304 304 305 304 304 304 304 305 305 305 305 306 307 308 309 310 310 311 313 312 312 313 318 325 330 332 331
303 303 302 302 302 303 304 304 303 302 302 302 302 302 303 302 302 303 303 303 303 302 302 302 302 303 303 303 303 305 305 304 305 305 305 305 305 305 305 305 305 305 302 301 301 301 301 302 302 302 303 303 303 304 304 303 304 304 304 304 304 304 304 305 304 304 304 304 304 304 305 305 305 306 307 307 306 306 309 311 311 312 312 316 324 328 331 331
303 303 302 302 302 303 304 304 303 302 302 302 302 302 302 302 302 303 303 303 303 302 302 301 302 302 303 303 303 305 305 304 304 305 305 305 305 305 305 305 306 306 304 302 301 302 302 301 302 301 302 303 302 304 304 303 304 304 304 305 305 305 305 305 304 304 304 305 304 304 305 305 305 305 305 305 304 303 305 307 310 313 314 318 324 327 330 331
303 303 302 302 302 303 304 304 303 302 302 302 303 303 302 302 302 302 303 303 303 302 302 301 301 302 303 303 304 306 305 304 305 305 305 305 305 305 306 306 306 306 305 304 303 303 302 301 301 300 302 303 302 303 303 304 304 303 304 305 305 305 304 304 304 304 304 304 304 304 305 305 306 305 304 306 306 304 306 309 311 315 318 322 325 326 329 331
303 303 302 302 302 303 304 304 303 302 302 303 303 303 303 303 302 302 302 303 303 302 302 301 301 301 302 303 305 305 304 304 305 304 305 305 305 305 305 306 306 306 306 306 306 304 303 301 301 301 302 303 302 303 303 303 304 304 304 304 305 305 304 304 304 304 304 304 303 305 305 305 306 306 305 307 308 306 307 311 313 314 317 323 325 326 328 330
303 303 302 302 302 303 304 303 303 302 302 303 303 303 303 303 302 302 302 302 302 302 302 301 301 301 301 303 305 304 303 304 304 304 304 304 305 305 305 306 306 306 306 307 307 305 304 302 301 302 302 302 303 304 303 303 303 304 304 303 304 305 304 304 304 304 304 304 304 305 304 304 306 306 306 307 306 304 305 308 310 310 312 319 324 325 328 329
303 303 302 302 302 303 304 303 303 302 302 303 303 303 303 303 302 302 302 302 302 302 302 301 301 301 302 304 304 303 303 304 303 303 303 304 305 306 306 306 306 306 306 307 307 306 304 303 302 303 302 302 303 303 302 303 303 304 304 303 303 304 305 305 305 304 304 304 305 305 303 303 305 306 306 306 306 306 306 307 309 310 309 315 321 324 327 328
303 302 302 302 302 304 303 303 303 302 303 303 303 303 303 303 302 302 302 301 301 301 301 301 301 301 302 303 303 303 303 303 303 303 303 304 305 306 306 306 305 306 306 307 307 306 305 303 303 303 303 303 303 303 303 304 303 303 304 303 303 305 305 305 305 305 304 304 305 305 303 303 304 305 305 305 306 307 308 308 309 313 312 314 320 321 325 327
303 302 302 302 302 303 303 303 303 303 303 304 303 303 303 303 302 302 301 301 301 301 301 301 301 301 302 304 303 304 303 303 303 303 303 304 305 306 306 306 305 306 306 307 307 306 305 303 303 304 304 303 303 303 304 305 303 302 305 306 305 305 306 305 306 305 305 305 306 305 303 304 305 305 307 307 309 310 311 312 311 315 316 316 320 320 323 326
302 302 302 302 303 303 303 303 303 303 303 303 303 303 303 303 302 302 301 301 301 301 301 301 301 301 304 305 304 303 303 303 303 303 303 304 306 306 307 306 305 306 307 307 306 306 304 304 303 304 304 304 304 304 305 307 307 304 305 308 307 306 307 306 305 304 304 305 305 305 303 304 305 306 309 310 310 311 311 313 313 316 318 318 321 322 322 325
302 302 302 302 303 303 303 302 303 303 303 303 303 303 303 303 302 302 301 301 301 301 301 301 301 302 304 305 304 302 303 303 303 303 303 305 306 307 307 306 306 306 307 306 306 305 304 304 304 304 304 304 304 304 307 311 311 308 306 307 308 307 307 307 306 305 305 305 304 304 303 303 304 305 307 307 308 309 309 310 311 313 317 319 320 321 321 324
302 302 302 302 303 303 303 302 302 303 303 303 303 302 302 302 302 302 301 301 301 301 302 302 302 304 305 304 302 302 303 304 304 303 304 305 306 307 307 306 306 306 307 306 306 305 305 305 304 305 305 305 304 305 309 312 311 310 309 309 309 308 307 307 307 306 305 305 304 304 304 304 304 304 305 306 306 308 308 308 310 310 313 317 320 321 321 323
302 302 302 302 302 303 302 302 302 303 303 303 302 302 302 302 302 302 301 301 302 302 304 303 302 303 304 302 302 302 303 304 303 304 305 306 306 306 306 306 306 306 307 308 307 305 305 306 305 307 308 308 307 307 308 310 309 309 308 308 308 308 308 308 308 306 304 304 304 303 304 303 304 304 304 305 305 306 306 307 308 309 311 314 319 321 321 323
302 302 302 302 302 303 302 302 302 303 303 302 302 302 302 302 303 303 302 301 302 302 302 301 301 302 302 302 302 303 304 304 303 304 305 306 306 306 306 306 306 307 308 307 307 305 304 307 308 309 310 310 309 308 307 308 307 307 307 307 307 307 307 308 307 307 304 303 303 303 303 303 304 304 304 304 304 304 305 306 306 309 310 311 316 321 322 324
302 302 302 302 302 303 302 302 302 302 303 302 302 302 302 302 303 303 301 301 301 301 301 301 301 301 301 301 302 304 304 303 304 304 305 306 306 307 307 306 307 308 307 305 306 305 304 307 309 309 310 309 308 307 307 307 307 307 307 306 307 307 307 307 307 306 304 303 303 303 303 304 304 304 304 305 304 304 305 306 306 307 309 310 314 319 322 323
302 302 301 302 302 302 302 301 302 302 302 302 302 302 302 301 302 302 301 302 301 301 301 301 300 301 301 302 303 304 304 303 304 304 304 305 306 307 307 306 307 308 306 305 306 307 307 309 310 309 309 308 308 307 307 307 307 307 307 307 308 307 307 307 306 305 304 303 303 304 304 304 304 304 305 305 305 305 305 306 306 306 307 309 311 316 321 322
302 302 301 301 302 302 302 302 302 302 302 302 301 301 301 301 301 301 301 301 302 301 301 301 301 301 302 303 304 304 303 303 304 303 304 305 305 306 306 307 307 307 307 307 307 308 308 309 309 309 308 307 307 308 308 308 308 308 308 308 309 308 307 308 306 304 303 303 304 304 303 304 304 304 305 305 305 305 305 306 306 306 307 308 310 314 319 320
301 301 301 301 302 302 302 302 302 302 302 302 301 301 301 301 301 301 301 301 302 302 301 302 302 302 302 303 303 303 303 302 302 303 304 304 305 305 306 307 306 307 308 307 307 307 307 308 309 308 308 307 308 309 308 309 309 309 309 308 308 308 308 308 307 305 303 303 303 303 304 304 304 305 305 305 306 305 305 306 306 306 307 308 311 314 318 319
301 301 301 301 302 302 301 301 301 301 301 301 301 301 301 301 301 301 301 302 303 302 301 301 303 303 303 303 303 302 302 302 302 303 303 303 304 305 306 306 306 308 308 306 307 307 307 308 308 308 308 307 308 309 308 308 310 309 309 309 308 308 307 307 307 306 305 305 304 303 305 306 305 304 305 305 305 306 306 306 306 307 308 310 312 314 316 318
301 301 301 301 302 302 301 301 301 301 301 301 301 301 302 301 301 301 302 304 304 303 301 301 303 304 303 303 303 301 302 304 302 303 303 304 305 305 306 306 306 307 307 307 307 307 307 307 307 307 308 308 308 308 308 308 309 310 309 308 308 307 307 307 307 306 306 307 305 304 305 306 305 305 305 305 305 305 306 306 306 307 309 311 313 315 316 316
301 301 300 301 301 301 301 300 301 301 301 301 302 302 302 301 301 301 302 306 304 302 302 302 302 304 303 302 301 301 304 304 302 304 305 304 305 305 306 307 307 306 307 307 307 308 308 308 309 307 306 307 308 308 309 308 309 311 309 307 307 307 307 307 307 306 306 306 306 304 305 306 306 305 305 305 304 305 305 305 305 306 309 312 314 315 316 315
301 300 300 301 301 301 301 301 301 301 301 302 302 302 302 301 301 301 304 308 304 300 302 302 302 303 302 301 301 301 303 302 303 306 304 304 305 305 306 307 307 307 307 306 306 308 308 309 312 309 306 307 308 308 309 308 309 310 308 307 306 306 306 306 306 306 306 306 306 305 305 306 306 305 305 305 305 305 305 305 305 305 310 313 314 315 316 315
302 301 300 300 301 301 301 301 301 301 302 302 301 302 302 301 301 301 306 308 301 299 302 302 302 303 301 301 301 301 301 303 304 304 303 304 305 305 306 307 305 306 306 305 305 307 307 307 308 308 306 306 308 308 308 307 309 309 307 307 306 306 306 306 306 306 306 306 307 306 306 306 307 306 306 306 305 305 305 306 305 305 311 314 315 316 316 314
302 301 300 300 301 301 301 301 301 301 302 301 302 302 301 301 302 305 309 306 301 300 301 301 302 302 300 302 302 301 301 302 302 302 303 303 303 303 305 304 304 305 305 304 305 306 306 306 304 305 306 306 306 307 307 307 308 308 306 306 307 307 307 306 305 306 307 307 307 307 306 306 306 307 306 307 307 306 306 306 305 306 311 315 315 315 314 314
302 301 300 300 301 301 301 301 301 301 302 301 302 301 301 302 304 308 309 303 301 301 301 302 302 301 301 300 301 301 302 302 301 302 303 303 303 304 304 304 304 304 305 305 305 306 306 305 304 304 305 305 306 307 308 308 307 306 306 307 308 309 308 307 306 306 307 308 308 308 307 306 307 307 307 307 307 307 307 306 305 307 311 315 316 315 313 313
302 301 300 300 301 301 301 301 301 301 301 301 301 301 303 305 307 309 307 302 302 302 300 301 300 300 300 298 299 301 301 302 301 301 303 302 304 304 303 304 303 303 304 304 304 305 305 307 306 305 305 306 307 309 309 308 306 307 307 308 309 310 310 310 309 309 309 309 309 309 308 307 307 307 307 308 308 308 308 306 306 309 312 315 316 315 313 313
302 301 300 300 300 301 300 301 301 300 301 301 301 301 304 307 310 308 305 304 302 299 298 300 298 297 298 299 300 299 299 302 301 301 301 301 304 304 302 302 302 302 303 303 304 303 305 307 308 308 307 306 308 309 309 308 307 308 307 308 309 310 311 312 311 311 311 311 309 308 308 308 309 309 309 309 309 309 309 308 309 312 313 315 316 315 313 312
301 300 300 300 300 300 301 301 300 300 301 301 302 303 304 307 310 304 304 307 301 296 298 298 297 297 298 299 299 298 300 302 300 301 302 302 303 304 303 302 301 302 302 303 303 303 304 306 308 309 307 306 308 308 309 308 307 307 307 307 309 309 310 311 311 312 313 313 310 308 309 310 311 310 308 308 310 310 310 310 311 313 314 315 316 314 313 312
301 300 299 299 300 300 300 300 300 300 301 301 304 305 305 309 309 303 304 306 301 298 298 296 296 300 300 299 297 296 299 301 300 301 301 302 302 303 304 303 301 301 302 303 303 303 304 304 306 307 305 306 308 308 308 308 308 308 307 307 308 307 307 307 308 309 310 311 311 309 310 312 311 309 307 309 310 310 311 312 313 314 316 316 315 314 313 312
300 299 299 299 300 300 300 300 300 301 301 302 305 305 307 309 305 302 304 302 300 300 300 298 298 301 302 301 298 297 297 299 300 300 300 300 301 302 302 302 302 301 301 302 303 303 304 305 306 306 305 306 307 307 307 307 307 307 306 307 306 305 305 306 307 308 309 312 313 311 312 313 312 311 308 308 310 311 312 313 313 315 316 316 314 313 313 312
299 299 299 299 299 299 300 300 300 300 301 303 306 306 307 305 299 300 301 299 299 298 299 301 300 300 303 303 301 299 298 298 299 299 301 300 301 302 302 302 301 301 301 301 302 302 302 304 306 306 307 307 305 305 306 305 306 307 306 306 305 304 305 306 308 310 311 314 314 313 313 312 311 312 309 306 308 311 313 313 314 316 316 316 314 313 312 312
298 298 298 299 299 299 300 300 299 301 301 302 306 307 304 301 297 297 298 297 298 298 299 302 300 298 301 302 301 299 298 300 300 299 301 300 301 302 302 302 302 300 300 300 301 302 301 304 305 305 305 306 304 304 306 306 305 305 305 304 303 304 305 306 309 311 311 313 314 314 313 311 309 309 307 305 305 309 313 314 314 316 316 315 315 313 312 312
297 298 298 298 300 299 300 299 299 300 301 302 306 306 302 300 297 296 298 298 298 299 300 301 299 298 298 299 300 299 297 300 300 299 300 300 301 302 301 302 301 300 299 299 300 301 301 303 304 305 304 304 304 305 306 306 304 304 304 304 303 303 304 305 307 309 310 312 313 314 313 311 308 306 305 305 304 305 312 316 316 317 317 315 314 314 313 312
297 298 298 298 300 299 299 299 299 302 303 302 305 304 300 299 297 295 298 298 297 298 299 299 299 299 299 298 298 298 297 298 299 299 299 299 300 302 301 301 301 300 298 298 300 300 300 301 303 305 305 304 304 304 304 304 304 304 304 304 303 302 303 304 305 306 308 310 312 313 314 311 307 305 304 305 304 304 308 315 317 317 316 316 315 314 314 313
297 299 299 298 299 299 298 299 299 301 303 301 301 302 299 298 297 296 297 297 296 297 297 298 298 299 300 300 298 298 298 298 298 299 299 299 301 301 301 300 301 300 298 299 300 300 301 301 302 303 303 303 304 303 302 303 302 303 303 304 303 302 302 304 307 307 306 308 310 310 313 312 307 305 304 304 305 304 304 310 316 317 316 316 315 314 314 313
298 301 300 298 298 298 299 300 297 296 301 302 299 300 301 299 297 297 297 297 297 296 295 296 297 297 299 300 298 298 298 298 298 299 300 299 300 300 300 300 300 299 300 301 300 300 300 300 301 302 302 303 304 301 298 300 300 301 302 302 302 302 301 303 307 307 305 307 308 307 311 312 306 305 304 304 306 305 304 308 314 316 316 316 315 314 314 313
299 300 299 298 298 298 299 301 298 297 300 299 296 297 299 298 296 297 297 297 297 296 296 296 296 297 298 298 298 298 298 299 300 300 299 298 299 299 299 299 299 299 300 301 300 299 300 300 300 303 303 303 302 299 297 298 299 301 302 301 301 301 300 301 303 303 304 307 307 308 312 313 307 305 305 305 307 307 307 309 313 315 315 315 315 314 314 314
299 298 298 297 297 298 299 301 302 301 300 297 296 297 297 297 296 297 297 297 297 297 297 297 296 297 297 296 297 297 297 299 300 298 298 298 299 299 298 298 300 300 300 300 300 299 300 300 300 302 303 303 303 301 300 300 301 301 301 301 302 301 300 301 302 302 305 307 306 308 312 311 308 307 306 305 307 308 308 310 313 315 315 315 315 314 314 314
299 298 297 297 297 298 299 300 301 303 301 299 300 299 299 298 297 297 297 297 296 296 297 297 295 296 296 294 296 297 296 298 298 297 297 297 298 298 297 298 299 300 300 299 299 299 299 300 300 301 301 302 302 302 302 301 300 301 301 301 302 301 300 302 304 305 308 308 306 308 310 309 308 307 306 306 306 306 306 308 311 314 314 315 315 314 314 313
299 299 298 297 297 298 298 297 298 301 302 301 301 300 301 300 297 295 296 296 296 295 296 296 295 296 296 295 297 298 296 296 296 297 297 297 298 298 297 298 298 298 298 298 299 299 297 297 299 301 302 301 302 302 301 300 300 301 301 300 300 300 299 302 306 308 307 307 308 308 307 308 309 306 305 306 305 304 305 305 307 310 312 315 315 314 314 314
300 301 298 297 297 297 297 297 297 299 300 301 302 301 301 300 297 296 296 296 295 295 295 294 294 297 297 296 298 299 297 296 296 297 297 297 298 298 297 297 297 297 298 298 298 298 297 298 298 300 302 301 300 300 299 298 298 299 300 300 300 299 299 304 309 308 306 308 310 309 307 307 308 306 305 305 304 304 304 303 304 306 310 314 315 314 314 313
300 300 298 298 300 299 298 298 297 298 298 299 300 299 299 300 298 298 298 295 294 295 296 296 295 297 297 297 299 300 298 298 299 300 300 298 298 299 298 296 296 297 298 298 296 296 298 298 297 297 300 299 298 298 297 296 296 297 298 299 299 298 299 305 309 307 305 309 310 307 306 307 306 305 305 305 304 303 303 302 303 306 310 313 314 315 315 314
299 299 297 298 300 299 298 298 298 298 299 299 300 299 300 301 301 299 297 295 296 295 296 298 299 297 297 297 298 299 300 301 301 301 301 300 299 299 299 298 297 296 297 297 295 294 296 298 297 295 299 300 295 293 294 294 295 298 299 298 298 298 298 302 307 307 306 308 308 306 306 306 305 304 304 303 303 302 301 301 302 305 310 313 314 315 315 315
298 299 298 297 298 297 297 298 297 299 299 299 301 300 299 301 302 299 296 298 302 298 294 298 300 297 295 296 297 299 300 301 300 299 299 300 299 298 299 299 298 297 297 296 295 293 295 299 298 294 298 301 295 292 294 293 293 301 306 301 298 299 300 301 304 307 308 308 308 308 308 307 305 304 303 302 302 301 301 301 301 303 308 311 314 315 315 315
299 300 299 299 299 297 297 297 297 299 299 299 301 300 299 301 301 299 299 299 302 300 296 298 299 296 293 294 296 299 300 299 299 299 298 298 298 298 299 298 297 298 298 297 295 295 296 298 297 295 299 304 298 294 295 292 292 302 308 303 300 301 300 299 300 304 307 308 308 309 309 308 306 305 303 303 303 302 301 300 299 300 304 307 311 314 315 315
299 300 299 300 301 298 297 297 297 300 301 300 300 299 300 300 298 298 301 299 297 298 298 297 297 296 295 295 297 299 299 298 297 297 297 296 296 297 297 297 296 298 298 297 295 295 295 297 297 295 299 306 303 294 294 297 300 304 303 299 299 299 299 298 298 300 303 305 307 308 307 306 306 304 303 303 304 303 301 299 298 299 300 302 306 309 311 314
Wind_Speed
6 5 5 5 5 5 5 4 4 4 4 4 4 4 4 4 5 5 6 7 8 8 9 11 13 16 14 10 8 6 6 10 15 17 18 19 18 16 16 15 15 14 13 13 12 10 11 12 11 9 6 5 6 6 4 5 4 2 2 4 5 5 4 1 2 2 4 4 8 12 12 10 10 11 13 12 6 5 6 10 9 17 18 12 11 9 18 29
5 4 5 5 5 5 4 4 3 4 4 4 4 4 4 4 4 5 5 7 8 8 9 10 14 16 13 9 9 7 5 9 16 19 20 19 17 16 16 16 16 15 14 14 14 15 15 14 13 10 7 6 7 5 3 5 4 0 1 4 4 2 1 2 2 2 4 5 10 11 7 9 11 11 14 11 8 8 6 8 8 12 18 15 11 11 23 32
3 3 4 5 4 4 4 3 2 3 3 4 4 4 4 4 4 4 5 6 8 8 10 11 15 16 11 8 9 9 5 7 16 19 18 17 15 16 16 16 16 15 15 16 16 17 15 14 13 10 8 7 7 6 5 5 3 1 1 4 3 2 1 4 4 1 2 4 10 10 7 10 10 8 11 10 12 11 7 8 8 9 15 17 14 16 27 33
2 2 3 4 4 3 4 3 2 2 2 3 3 3 3 3 3 3 4 6 8 9 10 12 16 16 10 8 9 10 4 3 12 15 14 15 15 16 16 16 16 16 16 16 16 15 14 13 11 8 7 7 6 5 5 6 3 0 2 3 2 2 3 7 5 2 3 5 9 10 10 11 9 9 10 8 10 8 5 6 7 7 9 12 14 20 29 34
2 1 2 4 3 3 4 3 1 1 2 2 3 3 3 3 3 2 3 5 7 9 10 12 16 15 9 8 10 11 4 0 8 12 12 14 14 15 16 16 17 16 15 14 14 13 12 12 8 6 6 5 5 4 3 6 5 1 1 2 2 1 3 4 2 3 4 7 9 11 10 10 11 11 9 7 8 8 5 7 8 9 11 11 13 22 31 35
1 0 2 3 2 3 3 3 1 1 1 2 2 3 2 2 2 2 2 2 6 8 10 11 15 15 9 8 10 10 6 2 6 10 10 13 13 14 15 16 17 16 14 13 12 11 11 12 8 4 4 3 3 3 2 5 4 2 1 1 2 3 4 3 4 7 8 9 10 10 10 11 13 14 11 13 14 13 12 12 13 13 13 14 14 24 34 37
1 1 2 1 2 2 3 3 2 1 1 2 2 3 3 2 2 2 2 1 5 7 9 10 12 14 10 7 8 9 9 6 6 8 10 11 12 13 14 15 16 16 15 14 14 13 12 13 10 5 3 3 2 2 2 4 2 3 1 3 3 3 7 9 8 11 12 13 14 14 13 13 13 12 11 14 16 18 21 19 19 19 17 15 15 23 37 39
1 0 2 1 1 2 3 4 2 1 1 2 3 3 3 3 3 3 3 2 4 6 9 9 10 13 11 7 6 7 8 6 6 8 9 10 11 12 13 14 15 17 16 15 17 15 11 12 12 6 2 3 1 1 3 4 3 3 1 2 3 5 8 10 11 15 16 16 17 15 15 15 16 14 16 23 23 24 28 26 24 24 21 17 15 21 35 40
1 1 1 2 1 2 3 3 3 1 1 2 3 3 3 3 4 4 4 4 4 6 9 10 9 11 11 8 6 4 5 6 7 8 8 9 10 11 12 14 15 16 16 16 17 16 12 11 11 8 3 3 1 0 2 4 0 2 1 1 5 8 10 12 14 17 16 15 13 12 15 18 17 15 16 24 28 31 32 29 27 23 21 18 15 19 31 40
1 1 1 2 1 2 3 3 3 1 2 2 3 3 4 4 4 5 5 5 5 7 9 10 9 9 10 9 5 3 5 7 7 8 8 8 9 10 11 12 13 14 15 16 16 15 14 11 10 9 4 4 1 2 1 3 2 1 4 6 10 12 13 12 14 18 15 14 15 13 15 20 16 10 10 9 12 22 25 22 22 19 16 15 16 18 28 39
2 2 1 1 0 1 3 3 2 2 2 2 3 3 4 4 5 5 5 5 6 7 8 10 9 8 9 8 4 3 6 7 8 9 8 9 10 10 11 12 12 13 14 15 15 15 13 11 10 9 3 2 3 2 2 4 4 5 7 9 12 13 13 14 16 18 13 11 15 12 13 19 13 9 13 9 7 15 20 20 21 20 16 13 16 19 26 37
3 3 2 1 1 1 2 2 2 2 2 2 3 3 4 4 5 6 6 5 6 7 8 9 9 9 9 6 2 4 6 7 8 9 9 10 10 11 11 11 11 11 13 14 15 14 12 10 9 7 2 3 5 3 2 3 5 7 7 8 10 9 10 11 13 11 7 7 7 5 9 13 12 15 16 14 16 20 24 26 24 26 24 17 17 19 25 34
3 3 2 2 2 2 2 2 1 1 2 2 3 4 4 4 5 6 6 6 7 8 8 9 9 10 9 5 3 4 5 7 9 9 10 11 11 11 11 10 10 11 12 13 13 12 11 9 7 5 2 3 3 3 4 4 5 7 5 5 8 8 5 3 5 5 6 7 4 4 7 8 10 15 12 10 14 18 23 28 25 27 30 23 19 21 24 31
4 4 3 2 2 2 2 1 0 1 1 2 3 3 3 3 5 6 6 7 7 8 8 9 10 10 8 5 3 3 5 7 9 10 11 12 11 11 11 10 9 10 11 12 12 11 9 8 7 4 2 2 2 4 7 5 4 4 3 2 4 6 1 3 3 5 6 5 6 7 8 8 9 10 9 10 12 15 21 26 24 23 28 27 22 22 24 28
5 5 3 3 2 2 1 1 1 1 1 2 3 3 2 3 5 6 7 7 8 9 9 9 10 9 8 5 1 3 6 7 9 11 12 12 11 11 11 10 10 11 11 12 12 10 8 7 5 4 2 2 3 4 6 5 3 3 4 3 3 3 2 3 5 8 8 4 6 8 7 8 11 10 8 8 8 12 17 22 24 21 23 27 24 22 24 25
6 5 3 3 3 1 0 0 1 0 1 2 3 2 2 3 6 7 7 8 8 8 9 10 10 8 5 2 1 5 8 8 11 12 11 11 10 10 11 10 10 10 11 12 11 8 6 4 3 2 1 2 2 3 5 5 3 2 3 5 4 5 6 4 4 8 10 6 6 10 8 8 7 7 5 5 6 9 13 18 22 21 21 24 23 22 24 25
7 5 4 3 3 1 0 0 0 0 1 2 3 2 2 4 7 8 8 8 8 9 10 8 7 5 3 2 3 7 9 11 13 12 11 10 9 9 10 9 9 11 12 12 9 5 4 3 2 2 1 1 1 2 4 6 5 2 3 6 7 9 9 7 3 4 6 6 8 11 11 12 12 12 14 14 14 13 14 18 20 21 21 22 22 22 24 26
8 6 4 4 3 1 1 1 1 0 0 2 3 2 4 6 8 9 9 8 8 8 5 2 4 3 2 2 6 8 10 12 13 12 9 8 8 9 10 9 9 11 11 9 4 3 3 1 1 3 2 3 3 3 4 6 8 9 7 8 9 10 10 11 8 3 5 6 9 10 12 15 16 17 20 21 20 18 18 19 20 20 22 23 23 23 24 26
9 7 5 4 4 2 2 2 1 1 0 2 3 3 5 7 9 8 5 6 6 4 1 1 3 3 3 6 8 10 11 11 11 10 7 5 7 10 11 10 9 9 8 5 2 3 4 2 2 4 3 3 4 5 7 9 11 12 12 11 11 11 11 15 14 6 5 8 12 12 14 17 18 18 19 21 21 20 19 19 19 19 20 23 23 22 24 26
10 8 6 5 4 3 3 3 2 2 1 1 2 4 5 6 6 3 4 6 4 3 3 5 5 6 7 8 9 11 11 10 9 7 5 5 8 10 10 9 8 6 3 3 3 2 2 4 4 5 5 7 5 6 10 11 12 12 12 12 12 13 13 15 15 7 7 8 11 12 16 19 19 17 18 20 20 20 20 20 21 19 18 21 23 23 23 24
10 9 7 6 5 3 4 3 3 2 1 1 2 3 3 4 3 3 6 5 2 3 5 6 6 6 7 8 9 10 10 10 8 4 3 6 8 7 7 7 6 4 1 2 3 2 2 5 7 7 7 7 6 6 9 11 13 12 11 11 11 12 13 14 14 7 8 7 10 12 16 20 19 17 18 19 17 18 20 20 22 21 19 20 23 24 23 23
11 9 7 6 5 4 4 4 3 3 2 1 1 2 4 4 3 5 7 4 2 4 4 5 6 5 6 8 8 9 9 7 5 4 4 5 7 5 6 6 4 4 2 1 4 3 3 6 7 5 4 4 5 5 8 10 12 11 9 9 9 9 10 12 12 7 7 6 9 11 14 17 16 16 18 19 18 20 22 21 22 22 21 20 21 24 25 25
11 10 8 7 6 5 5 5 4 3 2 1 1 3 4 4 5 6 6 4 3 3 3 2 3 4 6 7 7 9 8 5 4 7 5 3 6 5 6 6 5 5 3 1 4 5 6 7 4 1 1 5 8 6 7 9 9 9 8 8 10 9 9 8 4 4 7 7 8 9 12 13 13 14 15 20 22 22 23 24 24 23 22 22 20 22 25 28
12 11 9 8 7 6 5 5 4 3 2 1 2 3 4 5 5 6 5 2 1 2 2 1 3 4 5 6 7 7 8 8 7 6 4 4 6 5 4 4 5 5 1 1 5 7 11 15 11 7 5 7 9 8 7 7 7 10 10 10 12 12 13 11 7 3 5 8 9 8 11 11 11 14 14 17 20 20 22 23 25 25 23 23 21 21 25 31
12 11 10 9 8 6 5 5 4 3 3 1 2 3 4 4 6 5 3 1 1 2 2 1 3 4 4 5 6 9 11 9 5 5 5 6 4 3 3 3 3 4 2 1 5 8 11 11 8 5 3 3 7 8 7 6 7 10 10 12 14 14 14 14 12 7 4 7 8 6 7 8 7 13 15 13 13 16 19 20 23 25 22 22 22 21 24 32
13 12 11 10 8 7 7 6 5 4 3 2 3 3 4 4 6 5 2 1 1 2 2 2 2 2 3 4 8 12 9 3 4 6 5 2 2 3 3 1 2 4 4 4 5 5 6 4 3 2 3 3 6 8 7 6 6 9 6 6 12 14 13 14 12 7 4 6 4 9 7 8 7 10 12 11 11 13 16 17 22 24 21 21 21 20 23 31
13 13 12 11 9 8 8 6 5 5 3 3 2 2 3 5 6 4 2 1 1 1 2 2 2 3 4 7 12 11 5 4 7 5 0 1 3 3 3 1 2 4 2 4 6 1 3 4 2 1 3 4 6 7 5 6 5 8 2 1 8 11 12 13 11 8 7 7 3 9 9 7 10 10 8 10 13 13 14 15 19 23 22 20 20 21 24 29
13 13 13 12 11 10 9 7 6 5 4 2 1 1 3 6 6 3 1 1 1 1 1 2 2 4 6 11 13 7 5 7 5 0 1 3 3 1 4 4 4 6 2 2 7 1 1 3 1 1 3 6 6 5 2 5 6 9 3 3 8 9 11 11 9 8 8 7 6 9 9 5 9 8 6 10 14 14 15 16 18 22 21 19 19 20 23 28
12 13 14 13 12 11 9 7 6 5 4 2 1 1 3 5 4 1 1 1 1 1 1 1 2 4 9 12 8 4 4 4 2 3 4 4 3 2 5 6 5 8 5 6 9 7 3 4 2 3 4 6 5 3 1 5 8 8 6 8 10 9 10 8 7 6 5 6 8 8 11 7 8 8 7 9 12 13 13 13 16 21 21 19 17 19 22 28
12 13 14 14 13 12 10 8 6 5 4 3 1 0 3 4 2 0 1 1 0 1 1 2 2 5 10 9 3 1 2 3 4 7 4 2 4 4 7 8 5 6 5 7 10 12 13 10 3 4 7 6 4 5 5 8 9 8 7 8 9 8 8 5 5 4 3 7 8 9 15 10 7 6 5 5 7 10 10 11 14 19 21 20 17 19 24 28
12 13 15 16 14 13 11 9 7 6 5 4 2 1 1 2 1 1 1 1 1 1 2 2 2 3 6 5 2 3 3 3 6 6 3 2 3 3 4 4 2 4 3 2 5 9 10 5 2 5 7 5 4 6 6 6 4 5 4 6 7 5 4 3 3 4 4 8 4 9 15 12 7 6 3 3 5 7 9 11 14 17 20 20 18 19 25 29
12 13 16 17 15 13 11 9 8 7 5 4 2 1 1 1 1 1 2 1 1 1 1 1 2 3 4 2 2 3 3 2 4 3 3 3 2 2 3 3 3 4 3 3 5 9 6 1 2 3 3 4 4 5 3 3 2 3 6 7 6 4 2 3 4 4 7 7 1 6 11 9 8 8 7 8 7 6 8 12 15 18 19 20 19 19 25 29
12 14 16 17 16 14 12 10 9 8 7 5 3 2 3 1 1 1 1 2 1 1 1 1 1 2 3 3 2 2 1 1 3 3 1 2 1 2 2 0 2 3 3 4 6 7 5 0 1 2 1 4 3 5 4 2 2 4 6 6 5 4 4 6 5 4 7 5 2 4 8 5 6 5 7 10 10 8 8 11 13 19 21 20 19 19 22 25
12 14 16 18 17 15 13 12 10 9 8 6 4 2 2 1 2 1 1 3 1 1 1 1 2 2 1 1 2 3 1 1 2 4 2 1 0 2 2 1 0 1 2 4 3 3 4 3 1 0 0 3 4 4 4 5 5 4 3 4 5 4 4 6 5 4 6 4 2 3 5 3 3 2 7 10 10 8 6 8 12 19 21 19 19 19 19 21
12 14 17 18 17 16 14 12 11 10 10 8 4 2 1 2 2 1 1 2 1 1 1 3 1 2 1 1 1 1 1 0 2 3 3 1 1 1 1 1 1 2 2 3 2 1 4 6 3 2 2 3 3 2 2 4 4 2 2 3 5 5 3 5 7 7 8 6 2 3 3 2 2 1 8 9 5 3 4 8 14 17 19 19 18 19 20 20
13 14 17 18 17 16 14 13 12 12 11 8 3 1 2 2 1 2 2 1 2 0 0 1 2 1 2 2 1 0 0 1 3 3 2 1 1 1 0 0 2 2 2 3 2 2 4 6 4 2 3 5 4 2 2 2 2 1 2 4 7 6 4 5 7 7 9 7 2 2 2 2 1 1 7 11 7 1 5 10 15 17 19 19 17 18 20 21
14 15 16 18 17 16 14 13 13 13 12 6 2 1 2 1 1 1 2 2 2 1 1 0 1 1 1 2 2 1 1 1 1 2 2 1 1 3 2 2 3 3 2 2 1 0 4 8 5 1 2 3 3 3 3 4 2 2 3 5 6 4 3 3 5 4 5 5 1 1 2 4 4 2 7 13 12 3 6 10 13 16 17 16 17 18 18 19
15 15 16 17 17 15 15 14 14 13 10 4 1 2 1 2 2 2 4 4 2 2 1 1 1 0 1 2 2 1 3 3 1 2 2 1 1 3 2 2 4 4 3 3 1 1 2 8 4 2 2 2 2 3 3 4 5 2 3 4 3 2 2 3 4 3 4 5 3 1 1 2 4 5 8 12 12 6 5 10 10 13 14 14 17 18 18 17
16 14 15 17 17 16 15 15 15 13 8 2 2 2 1 2 2 4 6 4 2 2 1 2 1 1 2 2 2 1 2 3 2 2 1 1 0 4 3 1 4 4 4 4 2 0 1 5 3 3 4 3 1 2 2 1 3 2 2 1 1 2 5 4 3 3 3 4 4 2 0 2 3 6 9 9 10 9 2 8 9 10 13 13 15 18 19 18
18 11 11 17 18 16 16 16 15 10 4 1 2 1 1 1 3 6 8 5 2 2 1 1 2 1 2 2 1 1 1 2 1 1 1 1 1 3 4 2 2 3 3 3 2 1 1 2 5 3 3 4 2 1 1 3 2 2 3 2 1 2 4 3 3 2 2 3 4 3 2 2 3 5 8 8 7 8 5 3 6 8 11 13 15 17 18 17
18 7 8 19 19 17 19 15 8 4 1 0 1 1 1 3 4 5 7 6 3 2 2 1 2 1 1 1 1 1 1 2 2 1 2 2 2 2 3 5 4 4 3 2 2 3 2 2 6 8 6 6 4 2 2 0 0 2 4 2 2 4 4 4 2 0 1 3 3 4 3 2 3 5 7 8 6 5 7 4 6 8 9 12 12 14 15 15
15 3 9 21 20 20 20 9 1 0 1 1 1 2 3 4 4 5 7 6 2 2 2 1 1 2 2 1 1 2 2 3 2 2 3 3 3 3 3 7 5 5 3 2 0 2 1 1 6 8 7 10 7 4 4 1 1 2 3 1 1 2 2 4 3 3 3 3 2 3 2 1 4 6 6 8 5 4 6 6 7 9 10 11 11 11 12 13
11 3 12 22 22 23 17 3 1 1 1 1 2 2 4 4 4 5 6 6 3 2 2 2 3 3 2 1 2 2 3 3 3 3 2 2 3 5 5 6 4 4 3 2 1 3 1 1 4 6 6 8 4 4 4 1 1 2 2 1 2 2 2 5 4 3 4 3 2 2 1 2 4 7 7 6 6 6 6 6 6 8 9 11 11 10 10 10
10 8 13 19 23 22 12 1 2 4 1 1 2 2 3 3 4 5 4 5 5 4 2 2 3 3 1 1 2 3 2 2 2 3 1 1 3 4 5 6 5 4 3 2 1 2 2 1 2 6 7 4 1 2 1 2 2 3 3 2 3 3 4 5 4 2 2 3 3 2 2 3 4 6 8 8 9 9 10 7 5 7 7 8 9 8 8 8
12 9 9 16 23 19 8 2 2 3 3 3 1 2 3 2 6 7 4 4 6 5 3 1 2 3 2 2 2 2 3 3 2 1 1 2 4 4 4 6 6 3 3 2 1 2 2 2 1 3 6 6 6 6 4 4 6 5 4 5 3 3 5 4 2 2 2 4 3 2 3 4 4 7 9 10 9 9 11 11 7 7 6 6 7 7 8 7
10 5 4 10 16 13 7 4 2 2 4 4 1 2 4 2 3 6 5 4 5 6 3 1 3 3 2 2 2 1 3 4 2 2 3 3 3 3 1 4 6 5 3 2 3 3 1 2 4 6 6 6 9 10 6 6 7 8 8 10 8 5 5 4 2 2 4 4 2 4 5 5 7 10 10 10 9 8 9 11 9 5 5 6 7 8 8 7
7 4 7 9 7 8 7 7 7 4 3 6 3 2 5 3 2 4 5 4 5 7 4 1 3 4 3 4 4 2 2 2 2 3 5 5 4 3 2 3 5 6 3 3 4 3 1 3 3 5 9 11 12 15 12 8 8 10 11 12 10 8 7 5 4 4 5 4 3 7 9 6 7 9 9 9 9 7 7 9 9 4 3 7 9 9 8 8
6 4 12 14 6 5 5 8 14 10 3 5 4 2 5 5 3 4 5 3 4 7 6 2 3 7 6 5 3 2 2 1 2 3 3 3 3 4 2 1 2 3 3 3 3 2 2 4 1 2 8 12 13 15 12 7 7 9 10 11 10 9 7 5 4 4 5 3 3 7 8 6 6 8 8 7 7 7 8 7 5 1 3 7 11 12 10 10
8 4 11 13 6 7 9 9 16 16 5 2 3 2 5 6 5 4 3 3 2 5 7 4 5 8 8 5 3 3 3 2 2 4 3 2 2 2 2 1 1 2 1 2 2 1 1 3 1 0 8 10 7 5 4 4 5 7 9 9 8 7 5 4 4 4 2 1 3 6 4 4 4 6 6 8 9 8 6 3 1 3 5 7 10 11 12 13
13 7 11 12 5 7 10 10 14 13 5 2 3 3 4 6 6 4 4 6 4 3 7 7 4 5 7 7 6 5 6 5 1 2 3 2 2 2 1 1 1 1 1 0 1 1 1 1 2 1 6 6 1 3 2 2 3 6 7 7 5 4 3 3 3 3 2 2 4 4 3 4 3 5 8 11 12 9 5 4 4 3 4 5 6 6 8 9
16 11 12 12 6 6 10 9 10 8 3 3 5 3 4 6 7 6 5 10 9 6 10 10 5 4 4 6 8 10 12 10 7 6 4 3 4 2 1 1 1 0 2 1 1 1 1 2 1 1 5 4 3 3 1 0 1 4 5 9 8 4 2 2 3 2 1 4 5 3 4 4 3 5 9 10 11 9 7 8 8 6 4 3 3 4 5 6
20 14 14 12 5 5 8 7 7 6 3 5 8 6 5 4 8 9 5 8 11 9 10 13 10 6 3 5 10 15 17 15 14 13 10 9 9 8 7 5 3 3 2 1 1 1 1 1 2 2 4 4 1 1 2 1 1 1 5 8 7 6 4 3 3 1 2 3 3 4 3 2 3 4 6 7 8 8 7 9 9 6 4 2 1 3 4 6
Wind_Direction
86 86 70 64 67 67 76 96 111 123 124 121 116 107 99 86 70 55 46 41 37 31 21 16 15 12 10 14 25 22 9 8 3 4 18 24 20 15 10 5 1 0 2 5 8 13 19 19 26 38 46 60 60 59 71 67 73 150 206 230 238 228 220 50 60 16 336 314 338 349 1 349 325 334 337 330 300 293 268 228 218 208 209 215 210 215 193 183
87 81 65 58 58 58 67 85 107 126 131 129 125 120 112 95 80 62 52 45 40 33 21 16 15 13 12 19 27 20 9 9 8 15 23 21 16 16 11 6 3 3 4 7 10 15 17 15 25 40 56 64 57 58 65 58 56 26 197 229 237 210 163 83 81 12 338 310 321 327 342 334 317 325 337 330 304 309 286 235 226 219 215 219 216 199 187 183
85 87 60 49 49 44 52 65 95 129 135 136 136 133 124 109 96 72 63 55 45 38 27 20 16 15 18 27 23 10 358 8 14 19 19 15 17 16 10 7 5 5 7 10 13 13 14 15 22 35 57 62 54 65 55 48 52 25 242 244 220 154 191 185 181 275 276 296 309 309 321 315 306 319 327 319 305 296 271 246 236 231 224 223 216 193 188 186
76 96 50 37 38 33 39 42 71 126 137 143 148 145 136 124 111 89 79 63 49 41 30 25 19 17 26 34 18 6 354 17 20 17 13 15 17 14 10 7 5 6 8 9 9 6 10 18 19 28 57 62 44 59 45 24 23 25 256 279 138 159 244 192 195 265 255 293 297 296 303 296 297 310 304 303 302 278 255 259 246 260 262 241 218 194 189 188
89 103 30 21 25 25 28 25 46 142 151 157 164 158 150 139 130 112 98 64 46 37 28 27 21 20 29 30 19 15 14 150 17 10 13 18 17 14 10 10 8 5 6 6 3 2 11 21 24 31 51 56 26 51 52 13 4 256 245 22 101 212 262 180 196 290 297 309 294 291 298 295 298 292 271 264 275 265 274 292 285 295 302 282 234 204 193 188
131 11 14 14 10 20 17 6 353 182 165 174 180 176 172 161 157 152 138 55 37 28 22 25 22 20 24 26 23 32 47 61 13 11 17 19 16 14 11 13 9 4 5 3 5 12 21 29 43 54 53 65 23 38 47 0 350 276 176 136 232 247 264 284 305 293 303 305 290 289 301 310 301 285 263 249 251 258 271 281 289 291 295 292 251 211 194 189
142 5 20 15 9 21 3 352 348 221 191 196 198 193 191 184 190 207 228 352 25 16 13 19 20 19 19 24 23 37 56 58 25 19 20 17 16 12 8 11 7 3 3 4 13 21 28 37 54 83 84 83 50 43 3 328 286 262 223 167 241 256 265 291 300 293 298 291 284 286 293 297 284 283 280 255 246 259 268 272 281 284 286 285 257 218 199 195
150 38 14 24 43 18 355 350 347 272 218 218 218 212 207 206 215 235 253 284 357 359 2 8 14 16 16 20 19 34 48 43 25 20 16 11 12 9 5 6 4 4 1 4 14 17 25 37 45 58 62 73 85 78 347 311 229 224 238 163 244 262 268 286 292 291 292 285 286 284 278 272 263 273 280 269 262 265 268 270 277 281 280 270 253 230 207 201
156 178 345 20 47 6 354 347 339 285 236 237 231 229 225 225 233 247 263 280 327 342 350 358 2 6 11 13 13 28 30 21 19 12 5 2 3 2 1 1 360 3 1 360 5 6 17 30 29 21 21 92 106 269 360 314 222 168 242 254 270 275 278 283 283 282 282 281 283 279 273 269 268 271 272 273 270 266 267 270 273 276 274 257 241 235 213 204
160 177 315 2 19 2 353 341 337 289 262 250 241 244 236 238 244 251 269 282 311 329 337 350 354 356 4 11 18 29 15 16 15 6 360 355 352 351 353 355 355 0 360 354 354 358 8 16 12 8 26 96 42 317 300 296 314 279 276 281 273 272 277 276 273 271 272 274 268 262 271 273 274 268 259 287 280 263 264 261 259 263 264 247 235 235 217 207
175 185 279 338 337 347 347 339 337 299 272 263 260 255 243 246 250 254 270 284 303 319 328 341 347 348 355 7 35 28 7 10 8 3 360 353 346 340 340 344 348 355 355 350 348 350 357 0 359 2 24 51 335 300 256 274 285 291 294 289 272 263 264 256 258 265 260 265 262 248 266 274 271 252 246 252 243 249 261 255 246 252 258 244 235 234 220 213
183 196 240 277 259 307 348 344 337 301 277 284 279 264 257 252 252 259 270 283 298 309 321 334 341 343 346 355 14 350 354 2 358 354 351 349 344 336 333 333 337 345 346 345 346 345 343 347 355 5 10 319 318 299 272 279 287 296 297 294 288 274 262 243 244 255 237 249 256 227 266 267 245 243 243 239 239 246 259 259 250 250 255 247 237 235 223 217
192 209 236 262 268 314 347 345 336 293 288 302 290 271 264 257 261 266 271 284 293 303 316 328 332 336 341 339 317 323 343 351 347 344 341 342 341 336 328 322 326 333 337 338 339 340 334 334 343 354 344 311 312 296 292 290 285 290 277 279 298 288 269 223 229 222 211 241 217 191 264 261 234 240 240 242 246 247 252 256 252 247 250 246 237 235 228 221
207 222 243 259 266 314 337 337 315 292 311 314 295 276 267 272 275 273 277 284 289 301 313 322 325 330 334 325 305 325 340 341 337 336 336 336 336 332 323 318 320 321 326 329 330 334 327 322 328 335 335 304 297 290 285 272 251 276 272 233 274 285 246 129 171 178 200 235 189 197 257 264 256 253 251 260 252 246 250 254 252 242 242 242 236 235 235 228
216 225 243 242 251 297 329 334 281 300 349 317 294 277 282 294 285 279 279 283 290 302 311 316 318 322 324 312 259 320 334 335 330 330 331 330 330 324 319 318 316 314 318 321 327 332 321 318 331 338 334 293 286 287 282 262 221 247 273 251 233 267 269 207 200 199 224 243 169 197 256 265 266 271 268 268 253 249 254 257 256 246 236 236 234 232 235 233
217 221 231 228 237 275 327 315 279 355 357 316 290 280 308 303 288 281 277 284 294 303 311 311 312 315 314 293 270 323 330 330 324 324 324 325 325 319 317 317 312 311 313 317 325 330 323 326 337 321 297 281 278 287 290 279 247 206 248 283 279 269 291 284 207 201 228 245 192 206 250 272 269 271 258 259 270 268 266 264 263 258 244 234 230 228 230 231
215 217 220 224 228 241 219 222 220 56 349 306 287 286 319 304 289 282 280 288 298 306 310 311 316 310 257 207 319 323 324 325 321 319 321 322 321 316 316 316 311 308 310 318 329 333 326 336 325 294 239 217 246 279 293 295 294 282 249 275 280 270 281 285 234 173 195 225 225 220 240 259 262 267 267 270 277 274 267 266 266 266 259 244 232 227 230 229
211 213 213 220 225 221 191 191 203 149 30 295 289 312 321 303 292 287 286 292 302 311 314 346 358 329 204 243 312 318 320 321 318 317 323 323 318 316 316 314 306 305 309 312 328 348 332 350 231 270 236 205 208 232 275 301 307 302 290 285 288 276 267 269 263 184 160 217 236 232 241 253 256 261 263 265 268 267 263 264 266 266 264 256 241 229 230 229
209 211 210 219 220 212 196 190 192 162 111 290 299 331 319 308 301 288 291 306 302 306 307 329 324 294 283 298 307 315 317 317 315 317 327 326 319 318 317 312 303 302 303 298 341 25 332 286 237 269 270 244 216 215 253 284 293 292 290 285 284 280 269 270 268 229 191 245 248 242 252 259 259 260 258 256 258 260 260 261 263 261 261 260 249 231 226 226
208 209 207 217 217 208 199 192 190 169 155 280 318 339 326 328 323 291 311 319 295 272 280 286 280 273 286 294 305 315 317 317 315 316 331 330 325 322 316 312 303 291 282 304 328 22 329 291 265 264 276 288 276 237 247 266 276 278 279 275 270 273 272 270 272 240 183 242 257 246 253 260 261 262 260 257 255 255 254 253 256 255 254 257 252 237 224 220
208 208 208 213 214 208 201 197 194 171 165 248 324 338 321 333 337 313 321 319 293 299 292 274 267 268 278 292 307 314 319 321 313 317 343 335 336 331 316 316 309 294 354 331 289 239 253 277 274 275 275 285 284 257 254 261 269 269 265 268 263 262 268 269 272 243 169 220 265 256 257 262 260 261 259 254 251 248 246 245 249 251 251 253 251 241 224 212
207 208 207 208 212 207 203 203 196 176 177 221 314 312 304 312 309 316 319 296 285 319 308 271 258 258 277 295 303 309 321 321 305 315 324 330 346 339 308 311 303 300 329 285 271 277 276 267 270 293 300 283 269 249 252 259 267 268 258 260 261 262 273 273 265 235 176 217 268 263 263 268 265 263 259 251 246 246 244 243 245 247 249 249 248 244 226 204
207 208 206 207 210 205 206 208 195 180 184 204 307 295 300 314 315 321 321 292 288 338 340 283 251 259 281 295 298 309 319 311 295 306 305 327 346 326 298 301 295 296 303 262 301 316 298 281 283 11 328 282 279 262 252 259 262 261 255 257 264 268 275 273 256 194 184 217 264 277 276 276 269 264 258 248 244 246 245 244 245 245 246 247 247 246 226 198
206 207 206 206 208 205 208 205 195 190 190 211 286 288 303 318 320 325 325 298 272 348 342 269 271 278 284 293 297 312 317 304 295 290 291 324 324 314 302 302 298 293 290 264 292 282 271 279 293 305 285 269 278 275 257 258 270 268 261 258 263 267 266 266 273 246 210 231 247 273 286 278 259 251 252 245 235 236 238 239 244 242 239 243 245 244 226 202
206 207 207 207 207 204 202 200 201 200 193 215 260 285 306 317 323 327 326 298 223 351 343 287 305 297 287 290 297 317 314 302 300 279 284 309 311 314 311 285 276 298 351 330 280 272 272 286 309 311 290 254 264 272 258 245 278 287 274 257 256 263 266 268 274 270 266 261 222 202 271 284 250 239 245 246 229 224 225 227 236 236 229 230 235 239 223 203
207 206 206 207 206 201 194 197 205 200 200 226 250 290 313 322 328 329 320 277 155 16 346 292 312 307 289 297 311 320 312 280 322 309 286 291 302 306 306 234 214 285 326 307 280 267 269 309 17 330 304 287 268 272 258 226 263 293 295 264 261 265 266 264 264 245 248 284 195 172 233 283 282 256 244 243 236 227 223 220 227 229 221 217 223 228 214 196
207 206 205 206 204 197 192 197 204 195 201 223 241 301 322 328 329 318 298 310 140 16 340 267 272 292 289 308 316 319 311 302 320 319 225 336 320 302 291 255 227 265 301 304 296 241 237 297 12 5 306 277 271 277 243 188 245 290 340 356 275 264 258 257 252 231 237 281 247 194 217 269 281 273 249 238 242 241 232 223 223 223 215 207 213 220 208 192
208 206 204 203 202 198 197 202 198 187 191 203 218 313 326 331 330 309 268 315 339 359 337 263 255 273 299 314 311 294 282 305 312 324 25 324 317 298 266 256 264 276 227 251 292 314 106 292 243 154 286 267 263 275 221 173 245 284 316 302 273 255 253 255 247 240 242 268 264 214 200 240 269 267 250 232 236 240 232 223 221 218 206 196 205 212 203 193
208 206 202 202 201 198 200 201 192 185 186 189 195 330 338 333 326 304 170 277 312 54 11 300 256 281 319 322 305 275 283 299 304 310 318 307 303 304 268 259 271 281 247 219 263 281 272 265 217 172 255 267 267 278 207 193 243 294 323 294 277 258 250 244 236 244 238 248 257 211 182 212 272 274 258 234 233 237 228 218 216 210 196 185 192 200 195 192
209 205 201 200 198 198 199 196 187 181 178 180 183 39 355 341 325 142 335 276 225 41 307 307 286 304 337 339 304 7 346 289 305 307 296 296 319 313 277 271 267 270 253 219 240 265 272 271 257 226 243 265 307 298 249 226 258 311 331 294 283 261 241 229 227 229 238 250 243 184 177 201 269 286 262 242 250 248 228 209 203 199 188 177 181 190 190 190
211 204 201 199 195 195 196 192 185 176 174 177 162 63 4 1 71 169 297 223 124 1 325 356 341 328 6 9 308 351 359 310 318 313 299 334 353 344 303 292 269 260 271 237 248 281 285 265 222 242 243 250 295 289 249 222 262 312 306 289 295 269 223 215 211 183 232 257 226 162 178 196 234 262 270 278 281 267 233 206 191 186 181 173 172 184 191 190
212 205 199 197 194 193 192 190 184 174 173 171 147 82 56 25 264 231 281 316 3 350 15 44 3 350 7 357 263 314 332 322 336 333 327 342 20 31 5 16 355 321 340 356 321 322 321 202 205 265 233 214 256 292 268 189 190 293 299 301 304 293 247 235 219 199 234 249 185 156 178 194 235 257 292 304 295 275 233 210 190 176 171 168 167 178 188 188
210 204 198 195 192 189 188 186 180 174 175 163 143 106 72 19 273 187 240 303 347 27 61 61 310 324 327 310 282 310 282 248 337 330 292 297 343 76 72 39 335 343 346 327 325 334 334 350 177 251 199 174 217 296 309 281 289 305 318 321 307 297 296 280 257 248 254 256 59 142 175 211 259 268 315 308 296 283 238 217 192 168 161 165 170 174 179 183
207 202 197 193 190 187 185 183 176 173 174 158 137 104 68 284 252 147 238 261 276 341 77 80 319 297 258 300 323 323 261 183 345 321 277 264 343 81 105 169 288 286 275 298 335 360 323 318 70 214 355 145 201 265 293 295 296 286 277 282 283 294 303 291 285 292 295 307 36 132 172 252 281 325 335 308 289 284 250 213 184 164 156 159 167 167 168 177
204 200 194 191 188 185 183 179 173 171 168 153 121 90 141 247 240 184 237 248 230 259 139 122 19 324 254 268 309 329 295 215 8 328 294 311 356 64 88 147 186 247 277 322 342 345 283 265 243 250 229 189 222 247 227 270 280 254 240 261 283 304 289 275 283 283 285 296 296 193 204 279 245 300 346 332 300 271 228 190 175 160 149 151 160 162 167 176
199 196 191 188 186 183 181 175 171 171 166 152 114 135 195 245 247 181 181 110 121 176 250 149 96 13 302 298 291 118 142 288 347 337 296 319 291 174 117 222 177 215 299 340 328 324 301 270 255 274 231 208 243 258 195 253 310 292 287 306 302 291 248 260 280 266 260 268 256 219 261 322 267 227 3 3 10 81 179 175 169 158 146 149 158 163 171 178
193 190 188 185 183 181 177 172 170 170 166 156 143 190 199 218 198 190 162 118 119 113 351 333 67 25 292 296 289 285 313 265 326 335 297 319 260 177 185 214 183 197 248 299 307 63 303 289 282 291 256 210 215 257 236 231 267 298 309 327 315 281 201 244 284 283 277 276 284 350 320 348 3 352 356 1 5 16 167 164 160 155 150 152 159 166 175 180
186 184 183 182 182 177 171 170 170 166 157 143 220 227 194 170 165 173 160 140 126 125 123 211 165 95 216 276 288 293 326 309 7 357 297 293 202 178 182 191 187 201 208 217 281 100 275 292 288 166 246 273 176 236 264 223 216 263 322 338 339 305 285 283 285 309 319 305 311 324 270 14 19 344 339 347 346 346 150 155 154 155 158 157 155 162 174 179
177 175 182 182 177 171 167 167 166 160 149 152 228 217 183 188 188 178 172 155 127 151 166 218 221 107 175 224 299 300 317 315 340 349 263 296 11 188 193 185 180 195 196 193 250 359 206 289 302 157 212 275 207 208 281 258 210 238 309 308 144 255 278 284 298 306 303 302 313 312 259 36 13 327 327 329 327 337 65 152 159 156 156 155 153 161 173 179
171 168 186 182 172 166 164 162 161 158 150 184 204 185 144 191 185 185 185 172 148 171 173 184 188 180 194 208 274 295 291 291 297 305 221 284 295 201 189 195 179 173 187 195 235 256 190 255 281 276 263 284 287 203 312 329 299 285 303 295 303 299 279 267 269 273 283 300 313 318 339 41 12 325 320 317 317 335 349 130 144 142 146 153 159 167 172 176
169 169 189 177 169 164 160 155 154 162 168 358 183 188 180 170 161 172 187 183 163 160 143 153 198 190 194 212 172 174 262 274 229 242 259 230 240 234 179 184 181 146 157 202 209 223 218 223 271 296 316 299 298 107 129 288 321 299 301 313 328 324 316 298 273 228 313 297 291 306 338 37 350 332 322 313 316 335 337 6 103 120 138 150 159 168 171 173
175 192 180 172 168 164 159 147 74 109 173 188 170 158 157 153 150 162 180 184 168 142 144 139 231 202 193 219 135 150 240 269 202 199 258 231 232 263 178 167 172 159 180 284 115 175 226 263 268 276 262 265 288 69 97 128 158 236 261 231 270 303 322 299 303 352 329 288 256 274 287 46 353 346 336 319 324 347 346 13 83 104 123 137 147 161 166 168
184 177 166 168 167 165 160 136 340 209 243 195 149 141 148 145 143 154 177 190 177 145 156 184 211 217 213 192 149 158 211 238 207 198 246 250 253 255 211 180 182 166 185 286 84 146 185 246 277 286 261 252 267 86 92 95 154 228 254 220 243 280 268 249 271 329 323 304 310 286 294 49 17 353 347 351 10 26 23 39 88 104 113 125 135 147 154 162
160 131 154 167 168 169 174 188 186 195 207 129 103 121 155 174 180 171 183 202 191 163 157 198 210 209 186 141 154 164 186 221 223 223 244 245 265 273 241 213 207 182 197 286 53 146 216 225 282 308 316 306 325 65 31 310 312 303 298 263 228 268 287 268 257 265 284 320 326 316 351 16 9 350 360 24 34 32 26 31 92 119 121 126 130 142 154 162
139 117 147 172 173 177 199 235 159 167 156 141 135 171 166 191 206 202 197 197 193 180 167 172 178 157 123 123 140 161 198 220 238 274 326 242 259 292 271 218 202 195 218 229 132 180 243 292 261 289 324 334 329 330 340 335 322 310 302 296 287 304 317 309 263 246 311 340 337 347 340 330 346 358 6 21 29 28 23 25 60 103 120 136 139 154 163 158
154 134 140 170 181 196 229 245 187 137 145 160 156 184 181 169 198 202 195 193 195 184 167 123 147 144 123 168 198 216 200 199 225 298 297 255 259 314 299 209 213 233 244 210 175 171 236 276 231 233 254 275 289 295 316 339 316 295 300 309 316 331 323 303 298 329 318 311 345 15 339 322 352 3 3 9 12 11 14 16 26 60 115 141 143 156 167 163
174 185 162 156 182 218 243 247 219 183 162 184 175 153 178 165 114 176 189 207 201 181 172 156 177 186 178 173 194 226 193 173 200 258 267 250 257 303 285 230 246 245 220 163 161 153 242 271 225 219 240 251 267 281 297 315 294 278 291 304 311 322 326 329 352 345 314 308 19 2 344 346 1 356 353 360 4 357 354 357 358 16 119 147 153 160 170 173
181 183 174 168 167 190 210 227 210 194 168 184 178 124 166 176 172 180 184 191 193 187 186 200 225 216 199 169 167 178 166 169 207 224 256 254 259 304 292 218 258 240 184 149 159 153 264 270 196 185 254 259 263 273 285 287 269 267 274 283 294 307 317 330 340 328 325 358 360 326 339 8 0 343 345 349 345 329 324 335 342 26 135 156 165 168 178 183
177 151 169 176 180 178 180 190 187 183 173 175 188 173 179 191 196 182 142 135 188 208 196 210 239 216 194 173 173 188 190 209 256 232 222 234 244 284 299 220 203 223 189 151 159 132 260 253 128 207 279 279 275 271 256 233 261 276 272 273 280 285 283 283 292 291 290 325 289 293 337 32 3 333 327 328 335 330 322 340 60 139 144 158 168 173 184 192
185 171 163 167 158 154 160 157 164 171 170 178 203 205 189 196 197 175 155 174 184 172 183 213 245 198 184 184 189 214 208 191 250 243 177 184 257 232 257 277 189 208 284 208 165 177 260 277 85 99 287 300 57 119 176 210 272 279 280 297 300 280 272 263 274 288 296 320 297 294 4 38 17 327 315 328 353 6 16 32 41 84 117 138 162 177 190 199
192 185 168 162 143 139 150 144 147 155 164 190 198 192 188 207 201 178 185 208 207 169 178 199 185 133 170 191 198 232 235 217 236 257 221 228 258 244 245 257 146 256 310 304 213 210 233 298 28 36 306 302 132 134 262 214 199 249 305 337 339 330 320 280 279 306 353 337 328 347 28 18 346 325 321 335 2 15 17 16 17 31 58 98 161 182 197 201
192 186 175 165 147 155 159 138 139 161 183 192 189 183 188 203 186 174 190 226 217 203 195 194 172 133 161 195 207 235 245 242 250 264 268 261 257 259 262 255 236 252 275 283 284 265 200 297 327 356 313 282 209 27 330 204 133 358 348 342 327 322 327 301 291 284 228 273 340 27 34 333 303 322 331 344 0 5 2 2 2 7 25 59 154 196 206 204